DW9636 Weather Reports


Display with metric or nautical units.
time (UTC)temp
F
wind
direction
speed
MPH
gust
MPH
rain 1hr
in
rain 24hr
in
rain mn
in
humidity
%
barometer
mb
20260508080016 39 309 0.0 0.0 0.00 0.00 0.00 77 1014.1
20260508074515 40 309 0.0 0.0 0.00 0.00 0.00 75 1014.2
20260508073011 41 309 0.0 0.0 0.00 0.00 0.00 75 1014.2
20260508071510 42 309 0.0 0.0 0.00 0.00 0.00 74 1014.1
20260508070005 43 309 0.0 0.0 0.00 0.00 0.00 72 1014.0
20260508064504 44 309 0.0 0.0 0.00 0.00 0.00 71 1013.9
20260508063005 45 309 0.0 0.0 0.00 0.00 0.00 69 1013.9
20260508061505 45 309 0.0 0.0 0.00 0.00 0.00 69 1013.7
20260508060003 46 309 0.0 0.0 0.00 0.00 0.00 67 1013.6
20260508054502 47 309 0.0 0.0 0.00 0.00 0.00 65 1013.6
20260508053002 49 309 0.0 0.0 0.00 0.00 0.00 63 1013.4
20260508051502 50 309 0.0 0.0 0.00 0.00 0.00 61 1013.3
20260508044609 51 309 0.0 0.0 0.00 0.00 0.00 58 1013.1
20260508043112 52 309 0.0 0.0 0.00 0.00 0.00 57 1013.2
20260508041559 54 309 0.0 0.0 0.00 0.00 0.00 52 1013.1
20260508040104 57 309 0.0 0.0 0.00 0.00 0.00 51 1013.0
20260508034559 59 309 0.0 0.0 0.00 0.00 0.00 46 1012.7
20260508033059 60 309 0.0 0.0 0.00 0.00 0.00 46 1012.6
20260508031558 61 309 0.0 0.0 0.00 0.00 0.00 43 1012.4
20260508024600 63 288 0.0 0.0 0.00 0.00 0.00 40 1012.0
20260508023057 64 285 0.0 0.0 0.00 0.00 0.00 40 1011.9
20260508021556 65 285 0.0 0.0 0.00 0.00 0.00 39 1011.8
20260508020055 66 267 0.0 0.0 0.00 0.00 0.00 37 1011.7
20260508014555 67 311 0.0 0.0 0.00 0.00 0.00 36 1011.8
20260508013055 68 295 0.0 0.0 0.00 0.00 0.00 35 1011.8
20260508011605 69 251 1.0 0.0 0.00 0.00 0.00 34 1011.8
20260508010053 70 209 0.0 0.0 0.00 0.00 0.00 33 1011.8
20260508004555 70 300 1.0 0.0 0.00 0.00 0.00 31 1011.8
20260508003053 71 296 1.0 0.0 0.00 0.00 0.00 30 1011.7
20260508001552 72 324 1.0 0.0 0.00 0.00 0.00 30 1011.5
20260508000051 72 312 1.0 0.0 0.00 0.00 0.00 29 1011.4
20260507234600 73 311 1.0 0.0 0.00 0.00 0.00 27 1011.4
20260507233049 73 325 1.0 0.0 0.00 0.00 0.00 27 1011.4
20260507231553 74 290 1.0 0.0 0.00 0.00 0.00 25 1011.4
20260507230051 74 327 1.0 0.0 0.00 0.00 0.00 25 1011.6
20260507224549 75 277 1.0 0.0 0.00 0.00 0.00 23 1011.7
20260507223049 75 306 1.0 0.0 0.00 0.00 0.00 23 1011.9
20260507221548 75 311 1.0 0.0 0.00 0.00 0.00 21 1011.9
20260507220040 75 171 2.0 0.0 0.00 0.00 0.00 21 1012.1
20260507214540 75 300 2.0 0.0 0.00 0.00 0.00 20 1012.1
20260507213040 75 308 2.0 0.0 0.00 0.00 0.00 20 1012.2
20260507211539 76 291 1.0 0.0 0.00 0.00 0.00 19 1012.3
20260507210037 76 350 1.0 0.0 0.00 0.00 0.00 20 1012.2
20260507204535 75 307 1.0 0.0 0.00 0.00 0.00 20 1012.4
20260507203040 74 351 1.0 0.0 0.00 0.00 0.00 19 1012.6
20260507201537 74 333 1.0 0.0 0.00 0.00 0.00 19 1012.8
20260507200043 74 319 1.0 0.0 0.00 0.00 0.00 20 1012.8
20260507194527 73 304 1.0 0.0 0.00 0.00 0.00 20 1012.8
20260507193025 72 360 2.0 0.0 0.00 0.00 0.00 22 1013.0
20260507191523 71 174 1.0 0.0 0.00 0.00 0.00 26 1013.1
20260507190021 70 236 1.0 0.0 0.00 0.00 0.00 25 1013.3
20260507184516 69 316 1.0 0.0 0.00 0.00 0.00 27 1013.4
20260507183029 68 306 1.0 0.0 0.00 0.00 0.00 27 1013.5
20260507181509 67 161 1.0 0.0 0.00 0.00 0.00 27 1013.6
20260507180007 66 184 0.0 0.0 0.00 0.00 0.00 29 1013.6
20260507174504 65 261 0.0 0.0 0.00 0.00 0.00 32 1013.7
20260507173103 65 278 0.0 0.0 0.00 0.00 0.00 36 1013.8
20260507171612 63 212 1.0 0.0 0.00 0.00 0.00 38 1013.9
20260507170056 62 236 0.0 0.0 0.00 0.00 0.00 44 1013.9
20260507164602 60 183 0.0 0.0 0.00 0.00 0.00 46 1013.9
20260507163044 58 261 0.0 0.0 0.00 0.00 0.00 57 1014.0
20260507161544 56 307 0.0 0.0 0.00 0.00 0.00 65 1014.1
20260507160040 54 309 0.0 0.0 0.00 0.00 0.00 70 1014.2
20260507154536 51 309 0.0 0.0 0.00 0.00 0.00 77 1014.3
20260507153027 49 310 0.0 0.0 0.00 0.00 0.00 84 1014.5
20260507151538 47 310 0.0 0.0 0.00 0.00 0.00 88 1014.6
20260507150026 45 310 0.0 0.0 0.00 0.00 0.00 92 1014.8
20260507144525 42 310 0.0 0.0 0.00 0.00 0.00 95 1014.9
20260507143025 39 310 0.0 0.0 0.00 0.00 0.00 95 1014.9
20260507141523 36 310 0.0 0.0 0.00 0.00 0.00 94 1015.0
20260507140022 34 310 0.0 0.0 0.00 0.00 0.00 93 1014.9
20260507134530 33 310 0.0 0.0 0.00 0.00 0.00 92 1014.6
20260507133021 33 310 0.0 0.0 0.00 0.00 0.00 91 1014.6
20260507131525 33 310 0.0 0.0 0.00 0.00 0.00 91 1014.7
20260507130017 33 310 0.0 0.0 0.00 0.00 0.00 91 1014.5
20260507124516 33 310 0.0 0.0 0.00 0.00 0.00 90 1014.5
20260507123020 33 310 0.0 0.0 0.00 0.00 0.00 90 1014.5
20260507121512 34 310 0.0 0.0 0.00 0.00 0.00 90 1014.6
20260507120008 34 310 0.0 0.0 0.00 0.00 0.00 89 1014.6
20260507114511 35 310 0.0 0.0 0.00 0.00 0.00 90 1014.7
20260507113006 35 310 0.0 0.0 0.00 0.00 0.00 90 1014.7
20260507111510 36 310 0.0 0.0 0.00 0.00 0.00 89 1014.6
20260507110122 36 310 0.0 0.0 0.00 0.00 0.00 89 1014.7
20260507104559 37 310 0.0 0.0 0.00 0.00 0.00 89 1014.7
20260507103058 37 310 0.0 0.0 0.00 0.00 0.00 88 1014.7
20260507101558 38 310 0.0 0.0 0.00 0.00 0.00 88 1014.7
20260507100052 38 310 0.0 0.0 0.00 0.00 0.00 88 1014.8
20260507094602 39 310 0.0 0.0 0.00 0.00 0.00 88 1014.8
20260507093056 39 310 0.0 0.0 0.00 0.00 0.00 87 1014.8
20260507091607 40 310 0.0 0.0 0.00 0.00 0.00 86 1014.9
20260507090046 40 310 0.0 0.0 0.00 0.00 0.00 86 1014.9
20260507084542 41 310 0.0 0.0 0.00 0.00 0.00 84 1015.0
20260507083039 42 310 0.0 0.0 0.00 0.00 0.00 83 1015.0
20260507081535 43 310 0.0 0.0 0.00 0.00 0.00 82 1014.9